• în România
  • Lista ţărilor
  • Pe 7 zile
  • Temperatura apei
  • Hartă satelitară
  • Meteo pe hartă
  • Widget-uri
  • user-avatar
    Intrare

    Meteo pe oră la Koscielec

    Astăzi, 24 Octombrie, Miercuri

    Timp Temperatura Precipitaţii Vânt Presiune Umiditate
    00:00 -6°C° 1 mm 5 m/s 587 mmHg 86%
    01:00 -5°C° 1 mm 6 m/s 586 mmHg 87%
    02:00 -5°C° 1.8 mm 5 m/s 586 mmHg 88%
    03:00 -6°C° 1.8 mm 5 m/s 585 mmHg 89%
    04:00 -6°C° 1.8 mm 5 m/s 585 mmHg 90%
    05:00 -6°C° 1.7 mm 5 m/s 585 mmHg 88%
    06:00 -6°C° 1.7 mm 5 m/s 584 mmHg 86%
    07:00 -8°C° 1.7 mm 6 m/s 584 mmHg 85%
    08:00 -8°C° 0.3 mm 6 m/s 585 mmHg 80%
    09:00 -9°C° 0.3 mm 7 m/s 585 mmHg 75%
    10:00 -10°C° 0.3 mm 8 m/s 585 mmHg 70%
    11:00 -10°C° 0.2 mm 8 m/s 586 mmHg 66%
    12:00 -10°C° 0.2 mm 8 m/s 586 mmHg 61%
    13:00 -10°C° 0.2 mm 8 m/s 587 mmHg 57%
    14:00 -9°C° 0.1 mm 7 m/s 587 mmHg 58%
    15:00 -9°C° 0.1 mm 6 m/s 587 mmHg 60%
    16:00 -10°C° 0.1 mm 6 m/s 587 mmHg 61%
    17:00 -10°C° 0 mm 5 m/s 587 mmHg 63%
    18:00 -11°C° 0 mm 5 m/s 588 mmHg 65%
    19:00 -10°C° 0 mm 4 m/s 588 mmHg 67%
    20:00 -11°C° 0 mm 4 m/s 588 mmHg 69%
    21:00 -11°C° 0 mm 4 m/s 589 mmHg 71%
    22:00 -12°C° 0 mm 4 m/s 589 mmHg 72%
    23:00 -12°C° 0 mm 3 m/s 589 mmHg 75%

    Mâine, 25 Octombrie, Joi

    Timp Temperatura Precipitaţii Vânt Presiune Umiditate
    00:00 -12°C° 0 mm 3 m/s 589 mmHg 77%
    01:00 -13°C° 0 mm 3 m/s 589 mmHg 80%
    02:00 -13°C° 0 mm 3 m/s 589 mmHg 82%
    03:00 -12°C° 0 mm 2 m/s 589 mmHg 85%
    04:00 -12°C° 0 mm 2 m/s 589 mmHg 88%
    05:00 -10°C° 0 mm 2 m/s 589 mmHg 86%
    06:00 -10°C° 0 mm 2 m/s 590 mmHg 85%
    07:00 -9°C° 0 mm 2 m/s 590 mmHg 83%
    08:00 -9°C° 0.4 mm 2 m/s 590 mmHg 82%
    09:00 -8°C° 0.4 mm 2 m/s 590 mmHg 81%
    10:00 -8°C° 0.4 mm 3 m/s 590 mmHg 80%
    11:00 -6°C° 0.3 mm 3 m/s 590 mmHg 81%
    12:00 -5°C° 0.3 mm 3 m/s 590 mmHg 83%
    13:00 -4°C° 0.3 mm 4 m/s 590 mmHg 84%
    14:00 -4°C° 0.1 mm 4 m/s 590 mmHg 86%
    15:00 -4°C° 0.1 mm 4 m/s 590 mmHg 87%
    16:00 -3°C° 0.1 mm 4 m/s 590 mmHg 89%
    17:00 -4°C° 0.1 mm 4 m/s 590 mmHg 90%
    18:00 -4°C° 0.1 mm 4 m/s 590 mmHg 91%
    19:00 -4°C° 0.1 mm 4 m/s 590 mmHg 92%
    20:00 -5°C° 0.1 mm 3 m/s 590 mmHg 92%
    21:00 -5°C° 0.1 mm 3 m/s 590 mmHg 92%
    22:00 -5°C° 0.1 mm 3 m/s 590 mmHg 93%
    23:00 -5°C° 0.1 mm 3 m/s 590 mmHg 93%

    Poimâine, 26 Octombrie, Vineri

    Timp Temperatura Precipitaţii Vânt Presiune Umiditate
    00:00 -5°C° 0.1 mm 2 m/s 590 mmHg 93%
    01:00 -5°C° 0.1 mm 2 m/s 590 mmHg 93%
    02:00 -5°C° 0 mm 2 m/s 590 mmHg 94%
    03:00 -5°C° 0 mm 2 m/s 590 mmHg 94%
    04:00 -3°C° 0 mm 1 m/s 590 mmHg 94%
    05:00 -3°C° 0 mm 1 m/s 590 mmHg 94%
    06:00 -3°C° 0 mm 1 m/s 590 mmHg 93%
    07:00 -5°C° 0 mm 2 m/s 591 mmHg 93%
    08:00 -4°C° 0 mm 2 m/s 591 mmHg 87%
    09:00 -2°C° 0 mm 2 m/s 592 mmHg 81%
    10:00 -1°C° 0 mm 2 m/s 592 mmHg 75%
    11:00 -1°C° 0 mm 3 m/s 592 mmHg 73%
    12:00 0°C° 0 mm 3 m/s 592 mmHg 71%
    13:00 0°C° 0 mm 3 m/s 592 mmHg 69%
    14:00 0°C° 0 mm 3 m/s 591 mmHg 73%
    15:00 -1°C° 0 mm 3 m/s 591 mmHg 78%
    16:00 -2°C° 0 mm 3 m/s 590 mmHg 82%
    17:00 -2°C° 0 mm 3 m/s 590 mmHg 85%
    18:00 -2°C° 0 mm 3 m/s 589 mmHg 88%
    19:00 -4°C° 0 mm 3 m/s 589 mmHg 90%
    20:00 -4°C° 0 mm 3 m/s 589 mmHg 91%
    21:00 -4°C° 0 mm 3 m/s 589 mmHg 91%
    22:00 -4°C° 0 mm 3 m/s 589 mmHg 91%
    23:00 -4°C° 0 mm 3 m/s 589 mmHg 92%

    27 Octombrie, Sâmbătă

    Timp Temperatura Precipitaţii Vânt Presiune Umiditate
    00:00 -4°C° 0 mm 3 m/s 589 mmHg 92%
    01:00 -4°C° 0 mm 3 m/s 589 mmHg 93%
    02:00 -4°C° 0 mm 2 m/s 588 mmHg 93%
    03:00 -5°C° 0 mm 2 m/s 588 mmHg 93%
    04:00 -5°C° 0 mm 2 m/s 588 mmHg 92%
    05:00 -5°C° 0 mm 2 m/s 588 mmHg 91%
    06:00 -5°C° 0 mm 2 m/s 589 mmHg 89%
    07:00 -5°C° 0 mm 2 m/s 589 mmHg 87%
    08:00 -2°C° 0 mm 1 m/s 589 mmHg 82%
    09:00 -2°C° 0 mm 1 m/s 590 mmHg 77%
    10:00 -2°C° 0 mm 1 m/s 590 mmHg 72%
    11:00 -2°C° 0.1 mm 1 m/s 590 mmHg 71%
    12:00 -2°C° 0.1 mm 1 m/s 590 mmHg 70%
    13:00 -1°C° 0.1 mm 1 m/s 591 mmHg 70%
    14:00 -2°C° 0.1 mm 1 m/s 590 mmHg 72%
    15:00 -2°C° 0.1 mm 1 m/s 590 mmHg 74%
    16:00 -3°C° 0.1 mm 1 m/s 590 mmHg 75%
    17:00 -3°C° 0.2 mm 1 m/s 590 mmHg 77%
    18:00 -3°C° 0.2 mm 1 m/s 590 mmHg 79%
    19:00 -4°C° 0.2 mm 1 m/s 590 mmHg 81%
    20:00 -4°C° 0.3 mm 1 m/s 590 mmHg 82%
    21:00 -4°C° 0.3 mm 1 m/s 590 mmHg 83%
    22:00 -4°C° 0.3 mm 1 m/s 590 mmHg 84%
    23:00 -6°C° 0.7 mm 1 m/s 590 mmHg 86%

    28 Octombrie, Duminică

    Timp Temperatura Precipitaţii Vânt Presiune Umiditate
    00:00 -7°C° 0.7 mm 2 m/s 590 mmHg 87%
    01:00 -7°C° 0.7 mm 2 m/s 590 mmHg 88%
    02:00 -7°C° 0.3 mm 2 m/s 590 mmHg 89%
    03:00 -7°C° 0.3 mm 2 m/s 589 mmHg 89%
    04:00 -7°C° 0.3 mm 2 m/s 589 mmHg 90%
    05:00 -7°C° 0.6 mm 2 m/s 589 mmHg 90%
    06:00 -7°C° 0.6 mm 2 m/s 589 mmHg 91%
    07:00 -7°C° 0.6 mm 2 m/s 590 mmHg 91%
    08:00 -7°C° 0.5 mm 2 m/s 590 mmHg 91%
    09:00 -7°C° 0.5 mm 2 m/s 590 mmHg 91%
    10:00 -6°C° 0.5 mm 2 m/s 590 mmHg 91%
    11:00 -6°C° 0.9 mm 2 m/s 590 mmHg 92%
    12:00 -3°C° 0.9 mm 1 m/s 590 mmHg 92%
    13:00 -3°C° 0.9 mm 1 m/s 590 mmHg 93%
    14:00 -3°C° 1.4 mm 1 m/s 590 mmHg 94%
    15:00 -3°C° 1.4 mm 1 m/s 589 mmHg 95%
    16:00 -3°C° 1.4 mm 1 m/s 589 mmHg 96%
    17:00 -2°C° 0.7 mm 1 m/s 589 mmHg 96%
    18:00 -2°C° 0.7 mm 1 m/s 590 mmHg 96%
    19:00 -2°C° 0.7 mm 1 m/s 590 mmHg 97%
    20:00 -2°C° 0.1 mm 1 m/s 590 mmHg 97%
    21:00 -3°C° 0.1 mm 2 m/s 589 mmHg 97%
    22:00 -3°C° 0.1 mm 2 m/s 589 mmHg 96%
    23:00 -3°C° 0 mm 2 m/s 589 mmHg 96%

    29 Octombrie, Luni

    Timp Temperatura Precipitaţii Vânt Presiune Umiditate
    00:00 -3°C° 0 mm 2 m/s 589 mmHg 96%
    01:00 -3°C° 0 mm 2 m/s 589 mmHg 95%
    02:00 -2°C° 0 mm 2 m/s 588 mmHg 95%
    03:00 -2°C° 0 mm 2 m/s 588 mmHg 94%
    04:00 -2°C° 0 mm 2 m/s 588 mmHg 94%
    05:00 -2°C° 0 mm 2 m/s 588 mmHg 94%
    06:00 -2°C° 0 mm 2 m/s 587 mmHg 94%
    07:00 -2°C° 0 mm 2 m/s 587 mmHg 94%
    08:00 -1°C° 0.1 mm 2 m/s 587 mmHg 94%
    09:00 -1°C° 0.1 mm 2 m/s 587 mmHg 93%
    10:00 -1°C° 0.1 mm 2 m/s 587 mmHg 93%
    11:00 -1°C° 0.2 mm 2 m/s 587 mmHg 93%
    12:00 +1°C° 0.2 mm 2 m/s 587 mmHg 93%
    13:00 +1°C° 0.2 mm 2 m/s 587 mmHg 94%
    14:00 +1°C° 0.2 mm 2 m/s 587 mmHg 94%
    15:00 +1°C° 0.2 mm 2 m/s 588 mmHg 95%
    16:00 +1°C° 0.2 mm 2 m/s 588 mmHg 95%
    17:00 +1°C° 0 mm 2 m/s 588 mmHg 95%
    18:00 +1°C° 0 mm 2 m/s 588 mmHg 96%
    19:00 +1°C° 0 mm 2 m/s 588 mmHg 96%
    20:00 +1°C° 0 mm 2 m/s 588 mmHg 96%
    21:00 +1°C° 0 mm 2 m/s 588 mmHg 96%
    22:00 +1°C° 0 mm 2 m/s 588 mmHg 96%
    23:00 -1°C° 0 mm 2 m/s 588 mmHg 96%

    30 Octombrie, Marţi

    Timp Temperatura Precipitaţii Vânt Presiune Umiditate
    00:00 -1°C° 0 mm 2 m/s 588 mmHg 96%
    01:00 -1°C° 0 mm 2 m/s 588 mmHg 96%
    02:00 -1°C° 0 mm 2 m/s 588 mmHg 96%
    03:00 -1°C° 0 mm 2 m/s 587 mmHg 96%
    04:00 -1°C° 0 mm 2 m/s 587 mmHg 95%
    05:00 -1°C° 0 mm 3 m/s 587 mmHg 95%
    06:00 0°C° 0 mm 3 m/s 587 mmHg 95%
    07:00 0°C° 0 mm 3 m/s 588 mmHg 94%
    08:00 +1°C° 0.1 mm 3 m/s 588 mmHg 92%
    09:00 +1°C° 0.1 mm 3 m/s 589 mmHg 90%
    10:00 +2°C° 0.1 mm 3 m/s 589 mmHg 88%
    11:00 +3°C° 0.2 mm 2 m/s 589 mmHg 88%
    12:00 +3°C° 0.2 mm 2 m/s 589 mmHg 88%
    13:00 +3°C° 0.2 mm 2 m/s 589 mmHg 89%
    14:00 +3°C° 0.3 mm 2 m/s 588 mmHg 91%
    15:00 +3°C° 0.3 mm 1 m/s 588 mmHg 93%
    16:00 +3°C° 0.3 mm 1 m/s 588 mmHg 95%
    17:00 +3°C° 0.6 mm 1 m/s 587 mmHg 96%
    18:00 +2°C° 0.6 mm 1 m/s 587 mmHg 96%
    19:00 +2°C° 0.6 mm 1 m/s 587 mmHg 96%
    20:00 +2°C° 2.3 mm 1 m/s 587 mmHg 96%
    21:00 +2°C° 2.3 mm 1 m/s 587 mmHg 96%
    22:00 +2°C° 2.3 mm 1 m/s 587 mmHg 96%
    23:00 -1°C° 2.6 mm 2 m/s 587 mmHg 96%
    Arată mai mult